HEMAVAN current weather conditions

sailwx.info

Wind from 350 at 5 knots

Air temperature -2.0° C
Visibility: greater than 5.4 NM
Dewpoint -5.0° C

Last reported at 2016-Feb-10 18:20 UTC.
Time now 2016-Feb-10 20:10 UTC

Location: N 65°48' E 015°05'.
View on Google Maps.

See reports from other nearby stations

  
Tides and Currents Weather Stations Pressure Air Temp Water Temp Dewpoint Dewpoint Depression Visibility Wind Speed Wind Dir Waves Ship Positions
date/time (UTC)wind fromknots sea level pressurealtimeterstation pressurevisibilityair tempwater tempwave heightnotes
2016-Feb-10 19:20 310 10 5.4-2.0
2016-Feb-10 18:50 010 4 5.4-3.0 Light snow.
2016-Feb-10 18:20 350 5 5.4-2.0
2016-Feb-10 17:50 2.3-3.0 Light snow.
2016-Feb-10 17:20 090 2 2.7-3.0 Light snow.
2016-Feb-10 16:50 140 3 5.4-2.0 Snow grains.
2016-Feb-10 16:20 350 5 5.4-2.0 Light snow.
2016-Feb-10 15:50 330 6 5.4-2.0
2016-Feb-10 15:20 300 6 5.4-2.0
2016-Feb-10 14:50 290 6 5.4-2.0
2016-Feb-10 14:20 320 4 1.3-2.0 Light snow.
2016-Feb-10 13:50 310 4 5.4-1.0 Snow grains.
2016-Feb-10 13:20 5.4-1.0 Light snow.
2016-Feb-10 12:50 5.4-1.0 Snow grains.
2016-Feb-10 12:20 140 2 5.4-1.0 Freezing precipitation.
2016-Feb-10 11:50 5.4-1.0 Snow grains.
2016-Feb-10 11:20 140 3 5.4-1.0 Light snow.
2016-Feb-10 10:50 5.4-1.0 Light rain snow.
2016-Feb-10 10:20 160 2 5.4-2.0 Light rain snow.
2016-Feb-10 09:50 5.4-2.0 Snow grains.
2016-Feb-10 09:20 3.8-2.0 Light rain snow.
2016-Feb-10 08:50 3.8-2.0 Snow grains.
2016-Feb-10 08:20 4.3-2.0 Snow grains.
2016-Feb-10 07:50 4.3-2.0 Freezing precipitation.
2016-Feb-10 07:20 3.8-2.0 Freezing precipitation.
2016-Feb-10 06:50 220 2 5.4-3.0 Freezing precipitation.
2016-Feb-10 06:20 150 2 5.4-3.0 Freezing precipitation.
2016-Feb-10 05:50 5.4-3.0
2016-Feb-10 05:20 5.4-3.0
2016-Feb-10 04:50 180 1 5.4-3.0
2016-Feb-10 04:20 130 2 5.4-2.0
2016-Feb-10 03:50 170 3 5.4-3.0
2016-Feb-10 03:20 130 3 5.4-2.0
2016-Feb-10 02:50 130 3 5.4-2.0
2016-Feb-10 02:20 130 5 5.4-2.0
2016-Feb-10 01:50 130 4 4.3-2.0 Light snow.
2016-Feb-10 01:20 130 5 5.4-2.0 Snow grains.
2016-Feb-10 00:50 150 4 5.4-2.0
2016-Feb-10 00:20 150 3 5.4-2.0
2016-Feb-09 23:50 110 5 5.4-2.0
2016-Feb-09 23:20 130 7 5.4-2.0
2016-Feb-09 22:50 140 5 5.4-2.0
2016-Feb-09 22:20 5.4-2.0
2016-Feb-09 21:50 150 4 5.4-2.0
2016-Feb-09 21:20 150 3 5.4-1.0
2016-Feb-09 20:50 180 1 5.4-1.0
2016-Feb-09 20:20 5.4-1.0
2016-Feb-09 19:50 130 2 5.4-1.0
2016-Feb-09 19:20 110 3 5.4-1.0
2016-Feb-09 18:50 110 3 5.4-0.0
2016-Feb-09 18:20 150 6 5.4-0.0
2016-Feb-09 17:50 150 7 5.4-0.0
2016-Feb-09 17:20 150 6 5.4-0.0
2016-Feb-09 16:50 160 7 5.4-0.0
2016-Feb-09 16:20 170 6 5.4-0.0
2016-Feb-09 15:50 160 7 5.4 1.0
2016-Feb-09 15:20 170 6 5.4 1.0
2016-Feb-09 14:50 160 5 5.4 1.0
2016-Feb-09 14:20 5.4 1.0
2016-Feb-09 13:50 130 5 5.4 1.0
2016-Feb-09 13:20 130 5 5.4 1.0 Light snow.
2016-Feb-09 12:50 130 6 5.4 1.0
2016-Feb-09 12:20 160 5 5.4 1.0
2016-Feb-09 11:50 170 7 5.4 1.0
2016-Feb-09 11:20 160 8 5.4 1.0
2016-Feb-09 10:50 180 6 5.4 1.0
2016-Feb-09 10:20 180 7 5.4 1.0
2016-Feb-09 09:50 170 7 5.4 1.0 Snow grains.
2016-Feb-09 09:20 160 8 5.4 1.0 Light snow.
2016-Feb-09 08:50 150 8 5.4-0.0 Light snow.
2016-Feb-09 08:20 160 9 5.4-0.0 Light snow.
2016-Feb-09 07:50 160 7 5.4 1.0 Light snow.
2016-Feb-09 07:20 170 7 5.4-0.0 Light snow.
2016-Feb-09 06:50 160 8 2.4-0.0 Light snow.
2016-Feb-09 06:20 160 8 5.4 1.0 Precipitation.
2016-Feb-09 05:50 160 8 5.4 1.0
2016-Feb-09 05:20 150 10 5.4 1.0
2016-Feb-09 04:50 150 10 5.4 1.0
2016-Feb-09 04:20 150 8 5.4 1.0
2016-Feb-09 03:50 160 7 5.4-0.0 Snow grains.
2016-Feb-09 03:20 160 9 2.5-0.0 Light snow.
2016-Feb-09 02:50 140 10 5.4 1.0 Precipitation.
2016-Feb-09 02:20 150 8 5.4 1.0
2016-Feb-09 01:50 140 10 3.2-0.0 Light snow.
2016-Feb-09 01:20 160 10 5.4-0.0
2016-Feb-09 00:50 170 10 5.4-0.0 Snow grains.
2016-Feb-09 00:20 160 8 5.4-0.0 Snow grains.
2016-Feb-08 23:50 160 8 5.4-0.0 Light snow.
2016-Feb-08 23:20 150 9 5.4-0.0 Light snow.
2016-Feb-08 22:50 140 7 5.4-0.0 Snow grains.
2016-Feb-08 22:20 150 7 5.4 1.0 Light snow.
2016-Feb-08 21:50 180 6 5.4-0.0
2016-Feb-08 21:20 150 13 4.3 1.0 Light snow.
2016-Feb-08 20:50 150 10 5.4 1.0 Precipitation.
2016-Feb-08 20:20 130 14 5.4 1.0